GEFSNE_con_maxscp_276.txt.gz
SCP
3 3 3 2 2 2 2 2 2 1 1 1 2 2 2 1 1 2 2 2 1 1 1 1 1 1 0 0 0 0 0 0 0 0 0 1 1 1
2 2 3 2 2 2 2 2 2 1 1 1 2 2 2 1 2 2 2 2 2 1 1 1 1 1 1 0 0 0 0 0 0 0 0 1 1 1
2 2 2 2 2 1 1 1 2 2 2 2 2 2 2 2 2 3 3 3 2 2 1 1 1 1 1 0 0 0 0 0 0 0 0 0 0 0
2 2 2 2 2 2 1 1 1 2 2 2 2 3 3 3 3 3 3 3 3 2 1 1 1 0 0 0 0 0 0 0 0 0 0 0 0 0
2 2 2 2 2 2 2 2 2 2 2 2 3 4 4 4 4 4 3 4 3 3 2 1 1 0 0 0 0 0 0 0 0 0 0 0 0 0
2 2 2 2 2 2 2 3 3 2 2 3 3 4 5 5 4 4 3 3 3 3 3 2 1 1 0 0 0 0 0 0 0 0 0 0 0 0
2 2 2 2 2 2 2 3 3 3 3 3 3 4 5 5 4 4 3 3 3 3 3 2 2 1 1 1 0 0 0 0 0 0 0 0 0 0
3 3 3 3 2 2 2 2 2 3 3 3 3 4 5 5 4 4 3 3 2 3 2 2 2 2 2 1 1 0 0 0 0 0 0 0 0 0
4 4 4 3 3 3 3 2 2 2 2 2 3 4 5 4 4 3 3 2 2 2 2 2 2 2 2 2 1 0 0 0 0 0 0 0 0 0
5 5 5 4 4 4 4 3 3 3 2 2 3 3 3 3 3 3 3 2 2 2 3 2 2 2 2 2 1 1 0 0 0 0 0 0 0 0
6 6 6 5 4 4 4 4 4 4 3 3 2 2 1 2 2 3 3 3 2 3 3 3 2 2 2 2 2 1 0 0 0 0 0 0 0 0
6 7 7 5 4 3 4 5 5 5 4 4 2 1 1 1 2 3 4 3 2 3 3 3 2 2 2 2 2 1 1 1 0 0 0 0 0 0
5 6 7 5 3 2 3 4 5 4 5 4 3 2 2 2 3 3 4 3 3 3 3 3 2 2 2 2 2 1 1 1 1 1 0 0 0 0
4 5 5 4 2 1 2 2 3 3 4 4 3 3 3 4 4 4 4 4 3 3 3 3 2 2 2 2 2 2 2 2 1 1 1 0 0 0
4 4 3 2 1 1 1 1 2 2 3 3 3 3 3 4 5 5 5 4 4 3 3 3 3 3 3 3 3 3 3 2 2 1 1 1 0 0
4 3 3 2 2 2 2 1 2 3 3 3 3 3 3 4 5 6 5 4 4 3 3 3 3 3 3 3 4 4 4 3 2 2 1 1 1 1
4 4 4 4 3 4 4 3 3 3 4 4 4 4 3 4 5 6 5 4 3 3 3 3 2 2 3 3 4 4 4 3 3 2 2 2 1 1
5 6 7 7 6 6 6 4 3 4 4 4 4 4 4 4 4 4 4 4 3 3 3 2 2 2 2 2 3 3 3 3 3 3 2 2 2 1
6 8 10 10 9 8 7 6 5 4 4 4 4 5 5 4 4 3 3 3 3 2 2 2 2 2 1 2 2 2 2 2 2 2 2 1 1 1
7 9 11 11 10 9 8 7 6 5 4 5 4 4 4 4 3 3 2 2 2 2 2 2 1 1 1 2 1 1 1 1 1 1 1 1 1 1
7 8 9 9 9 9 9 8 6 5 4 4 4 4 3 3 3 3 2 2 2 1 1 1 1 1 1 2 2 1 0 0 0 0 1 1 1 1
7 8 8 9 8 8 9 9 6 4 4 3 3 3 3 3 3 3 3 2 2 1 1 1 1 1 1 1 1 1 0 0 0 0 0 0 1 0
7 7 8 9 8 8 9 9 6 4 3 3 3 3 3 3 3 3 3 2 2 1 1 1 1 1 1 1 1 0 0 0 0 0 0 0 0 0

GEFSNE_con_maxscp_282.txt.gz
SCP
1 1 1 1 1 1 1 1 1 0 0 0 0 0 1 1 1 1 1 1 1 1 1 0 0 0 0 0 0 1 1 1 1 1 1 1 1 0
1 1 1 1 1 1 1 1 1 1 0 0 0 0 1 1 1 0 1 1 1 1 1 0 0 0 0 0 0 0 0 0 1 1 1 1 1 1
1 1 1 1 1 1 1 1 1 1 1 1 0 0 1 1 0 0 1 1 1 1 1 1 0 0 0 0 0 0 0 0 0 0 0 1 1 1
1 1 1 1 1 1 1 1 1 1 1 1 1 1 1 1 1 0 1 1 1 1 1 1 1 0 0 0 0 0 0 0 0 0 0 0 0 0
1 1 1 1 1 1 0 1 1 1 1 1 1 1 1 1 1 1 1 1 1 1 1 1 1 1 0 0 0 0 0 0 0 0 0 0 0 0
1 1 1 1 1 1 0 1 1 1 1 1 1 1 1 1 1 1 1 1 1 1 1 1 1 0 0 0 0 0 0 0 0 0 0 0 0 0
1 1 1 1 1 1 1 1 1 1 1 1 1 1 1 1 1 1 1 1 1 1 1 1 0 0 0 0 0 0 0 0 0 0 0 0 0 0
1 1 1 1 1 1 1 1 1 1 1 1 1 1 1 1 1 1 1 1 1 1 1 0 0 0 0 0 0 0 0 0 0 0 0 0 0 0
1 1 1 1 1 1 2 1 1 1 1 1 1 1 1 1 1 1 1 1 1 1 1 0 0 0 0 0 0 0 0 0 0 0 0 0 0 0
2 1 1 1 2 2 2 2 2 2 1 1 1 1 1 1 1 1 1 1 1 1 0 0 0 0 0 0 0 0 0 0 0 0 0 0 0 0
2 2 2 2 1 2 2 2 2 2 1 1 1 1 1 1 0 0 0 1 1 1 0 0 0 0 0 0 0 0 0 0 0 0 0 0 0 0
2 2 2 2 1 1 2 2 2 2 2 1 1 1 1 0 0 0 0 1 1 1 1 1 1 0 0 0 0 0 0 0 0 0 0 0 0 0
2 3 3 2 1 1 1 2 2 2 2 2 2 1 1 1 1 1 1 1 1 1 1 1 1 1 1 0 0 1 1 1 1 1 0 0 0 0
2 2 2 2 1 1 1 1 1 2 2 2 2 2 2 1 1 1 1 1 1 1 1 1 1 1 1 1 1 1 1 1 1 1 1 0 0 0
2 2 1 1 1 1 1 1 1 1 2 2 2 2 2 1 1 1 1 1 1 1 1 1 1 1 1 1 1 1 1 1 1 1 1 1 0 0
1 1 1 1 1 1 1 1 1 1 2 2 2 1 1 1 1 1 1 1 1 1 1 1 1 1 1 1 1 1 1 1 1 1 1 1 0 0
1 1 1 1 1 1 1 1 1 1 2 2 2 1 1 1 1 1 1 1 1 1 1 1 1 1 1 1 1 1 1 1 1 1 1 0 0 0
1 1 1 1 1 1 2 2 2 2 2 2 2 2 1 1 1 1 1 1 1 1 1 1 1 1 0 0 0 0 0 0 0 0 0 0 0 0
1 1 2 1 1 2 2 2 2 2 2 3 3 2 2 2 1 1 1 1 1 1 0 0 0 0 0 0 0 0 0 0 0 0 0 0 0 0
1 1 2 2 2 2 3 3 3 2 3 3 3 3 3 3 3 2 2 1 1 0 0 0 0 0 0 0 0 0 0 0 0 0 0 0 0 0
1 1 2 2 2 3 3 3 2 2 3 3 4 4 4 5 5 4 4 2 1 0 0 0 0 0 0 0 0 0 0 0 0 0 0 0 0 0
1 2 2 2 2 3 2 2 1 2 2 3 3 4 5 5 6 6 5 2 1 0 0 0 0 0 0 0 0 0 0 0 0 0 0 0 0 0
2 2 2 2 2 2 1 1 1 1 2 3 3 3 4 5 5 5 4 2 0 0 0 0 0 0 0 0 0 0 0 0 0 0 0 0 0 0

GEFSNE_con_maxscp_288.txt.gz
SCP
1 1 2 2 1 1 1 1 1 1 0 0 0 0 0 0 0 0 0 0 0 0 0 0 0 0 0 0 1 1 1 1 1 1 1 1 1 1
1 2 1 1 1 1 1 1 1 1 1 1 1 1 1 1 0 0 0 0 0 0 0 0 0 0 0 0 0 0 0 0 0 0 0 1 1 1
2 2 1 1 1 1 1 1 1 1 1 1 1 1 1 1 1 1 1 1 0 0 0 0 0 0 0 0 0 0 0 0 0 0 0 0 0 0
2 1 1 1 1 1 1 1 1 1 1 1 1 1 1 1 1 1 1 1 1 1 0 0 0 0 0 0 0 0 0 0 0 0 0 0 0 0
1 1 1 1 1 1 1 1 1 1 1 1 1 1 1 1 1 1 1 1 1 1 0 0 0 0 0 0 0 0 0 0 0 0 0 0 0 0
1 1 1 1 1 1 0 1 1 1 1 1 1 1 1 1 1 1 1 1 1 1 0 0 0 0 0 0 0 0 0 0 0 0 0 0 0 0
1 1 0 0 0 0 0 0 1 1 1 1 2 1 1 1 1 1 1 1 1 1 1 0 0 0 0 0 0 0 0 0 0 0 0 0 0 0
1 1 1 0 0 0 0 0 1 1 1 2 2 2 2 1 2 2 2 2 2 1 1 0 0 0 0 0 0 0 0 0 0 0 0 0 0 0
1 1 1 1 1 1 1 1 1 1 1 1 2 2 2 2 2 2 2 2 2 1 1 1 0 0 0 0 0 0 0 0 0 0 0 0 0 0
2 1 1 1 1 1 1 1 1 1 1 1 1 1 1 2 2 2 3 2 2 1 1 1 1 0 0 0 0 0 0 0 0 0 0 0 0 0
3 2 1 1 1 1 1 2 2 1 1 1 1 1 1 1 2 2 3 3 2 1 1 1 1 1 1 0 0 0 0 0 0 0 0 0 0 0
5 3 2 1 1 1 1 1 1 1 1 1 1 1 1 1 1 2 3 2 2 1 1 1 1 1 1 1 1 1 1 0 0 0 0 0 0 0
8 6 3 1 0 0 1 1 1 1 1 1 1 1 1 2 2 2 2 2 1 1 1 1 2 2 2 2 1 1 1 1 0 0 0 0 0 0
11 8 4 1 0 0 0 0 0 1 1 2 2 2 2 2 2 2 1 1 1 1 1 1 2 2 3 2 2 1 1 1 0 0 0 0 0 0
10 8 4 1 0 0 0 0 0 1 2 2 3 3 2 2 2 2 1 1 1 1 1 1 1 2 3 2 2 2 1 1 0 0 0 0 0 0
6 5 2 1 1 0 1 1 1 1 2 3 3 3 3 2 1 2 2 2 1 1 1 1 1 2 3 2 2 2 1 1 1 0 0 0 0 0
4 3 2 2 1 1 1 1 1 1 2 3 3 3 3 2 1 2 2 2 2 1 1 2 2 2 2 2 2 2 1 1 1 1 1 0 0 0
4 4 4 3 3 3 2 2 2 2 2 2 3 3 2 2 2 2 2 2 2 2 2 2 2 2 2 2 2 2 1 1 1 1 1 1 1 1
4 5 6 5 5 4 4 3 3 2 2 2 2 2 2 2 2 2 2 2 2 2 2 2 3 3 3 2 2 1 1 1 1 1 1 1 1 1
5 6 7 6 5 5 4 4 4 3 3 3 3 2 2 2 2 2 2 2 2 1 2 2 2 3 3 3 2 1 1 1 1 0 1 1 1 1
4 5 5 5 4 4 4 4 5 4 4 3 3 3 3 2 2 2 2 2 2 2 2 2 2 2 3 3 2 1 0 0 0 0 0 0 0 0
4 4 4 3 3 3 3 4 4 4 3 3 3 3 3 2 2 2 2 2 2 2 2 2 2 2 1 2 1 1 0 0 0 0 0 0 0 0
4 4 3 3 3 3 3 2 2 2 2 3 3 3 2 2 2 2 2 2 2 2 3 3 2 1 1 1 1 0 0 0 0 0 0 0 0 0

GEFSNE_con_maxscp_294.txt.gz
SCP
3 3 2 2 2 2 3 3 2 1 1 1 1 1 1 1 1 1 1 1 0 0 0 0 0 0 1 1 1 1 1 1 1 1 1 1 1 1
3 3 3 2 2 2 3 3 2 2 1 1 1 1 1 1 1 1 1 1 1 0 0 0 0 0 0 0 0 1 1 1 1 1 1 1 1 1
4 3 3 3 2 3 3 3 3 2 2 1 1 1 1 1 1 1 1 1 1 1 0 0 0 0 0 0 0 0 0 0 0 0 0 0 0 1
4 4 3 3 3 3 3 3 3 2 2 1 1 1 2 1 1 1 1 1 1 1 0 0 0 0 0 0 0 0 0 0 0 0 0 0 0 0
4 4 4 3 3 3 2 2 2 2 2 2 2 2 2 1 1 1 1 1 1 1 1 0 0 0 0 0 0 0 0 0 0 0 0 0 0 0
4 4 4 4 3 3 2 2 2 2 2 2 2 2 2 2 2 2 2 2 2 1 1 1 1 0 0 0 0 0 0 0 0 0 0 0 0 0
5 5 5 4 3 2 2 2 2 2 2 2 2 2 2 2 2 2 3 3 3 2 2 2 1 1 1 1 0 0 0 0 0 0 0 0 0 0
6 6 6 5 4 2 1 1 2 2 2 2 1 2 2 2 2 3 3 4 3 3 3 2 2 2 1 1 1 0 0 0 0 0 0 0 0 0
6 7 8 7 5 3 2 1 1 1 1 1 1 2 2 3 3 3 4 4 4 4 4 3 3 2 2 1 1 0 0 0 0 0 0 0 0 0
6 7 9 8 7 4 3 2 2 1 1 1 2 2 2 3 3 4 5 5 4 5 5 4 3 3 2 1 1 0 0 0 0 0 0 0 0 0
5 6 8 8 7 4 3 3 3 2 2 1 1 2 2 2 3 4 5 5 4 4 5 5 4 3 3 3 1 0 0 0 0 0 0 0 0 0
5 6 6 6 5 3 3 4 4 4 3 2 2 2 2 2 3 4 5 4 3 4 5 6 4 4 5 5 2 1 1 0 0 0 0 0 0 0
5 6 6 4 2 1 2 3 4 4 4 4 3 3 3 3 4 4 5 5 4 4 5 6 5 5 6 5 3 2 1 1 1 0 0 0 0 0
5 6 5 3 1 0 1 2 2 3 4 4 4 3 4 4 5 6 7 6 5 5 6 6 6 6 6 5 3 2 1 1 1 1 1 0 0 0
4 4 3 2 0 0 0 1 1 2 4 4 4 4 4 4 5 6 7 7 7 6 6 7 6 5 4 4 3 2 2 2 2 2 1 1 1 0
3 3 2 2 2 2 2 2 2 3 4 4 4 4 4 4 5 6 7 7 7 6 6 6 6 5 4 3 3 3 2 2 2 2 2 2 1 1
2 2 3 4 4 5 5 5 5 5 5 4 4 3 3 4 6 7 8 7 6 5 6 6 6 5 4 4 3 3 3 2 3 3 3 3 2 2
1 2 3 5 6 7 7 7 7 7 7 6 5 4 4 4 7 8 8 7 6 5 6 6 7 6 5 4 3 3 3 3 4 4 5 4 3 2
1 2 3 4 6 7 7 7 8 8 8 7 6 5 4 5 6 8 8 7 7 6 7 7 7 6 5 4 3 2 2 3 4 5 5 5 4 2
2 3 3 4 5 6 7 7 8 9 10 9 7 6 5 5 6 7 9 9 8 8 8 8 7 6 4 4 3 2 2 3 4 5 5 5 4 2
2 2 3 3 4 6 7 8 9 10 11 11 9 7 6 6 7 8 9 9 8 8 8 8 7 6 5 4 4 3 2 2 2 3 4 4 3 1
2 2 3 3 4 5 7 8 9 10 11 11 11 9 8 8 8 9 9 8 8 8 8 7 6 6 5 5 4 3 2 1 1 1 2 2 1 1
2 2 3 3 4 5 7 8 10 10 10 10 10 10 9 9 9 8 8 7 7 7 7 6 6 6 5 4 4 3 2 1 1 0 0 0 0 0

GEFSNE_con_maxscp_300.txt.gz
SCP
6 5 4 4 3 2 3 3 2 1 2 2 2 2 2 1 1 1 1 1 1 1 1 0 0 0 1 1 1 1 1 1 1 1 1 1 1 1
5 5 5 4 3 2 2 3 2 2 2 2 2 2 2 1 1 1 1 1 1 1 1 0 0 0 0 1 1 1 1 1 1 1 1 1 1 1
4 5 6 4 3 2 2 2 2 2 2 2 2 3 3 2 2 1 1 1 1 1 1 1 0 0 0 0 0 0 0 0 0 0 0 0 0 0
4 4 5 4 3 3 2 2 2 2 1 1 2 3 3 3 2 2 1 1 1 1 1 1 0 0 0 0 0 0 0 0 0 0 0 0 0 0
4 4 3 3 3 3 3 2 2 2 1 1 2 2 2 3 3 2 2 1 1 1 1 1 1 0 0 0 0 0 0 0 0 0 0 0 0 0
4 4 3 3 3 4 4 3 3 2 2 2 1 1 2 2 2 3 2 2 2 2 2 1 1 1 0 0 0 0 0 0 0 0 0 0 0 0
4 4 4 3 3 3 4 4 3 3 2 2 2 1 1 2 2 2 2 2 2 2 2 2 1 1 1 1 0 0 0 0 0 0 0 0 0 0
4 4 3 3 3 3 3 4 3 3 2 2 2 2 2 2 2 2 2 2 3 3 3 3 3 3 2 2 1 0 0 0 0 0 0 0 0 0
3 3 3 3 3 3 3 4 3 3 2 2 2 2 2 2 2 2 3 3 4 4 4 4 3 4 3 2 1 0 0 0 0 0 0 0 0 0
3 3 3 3 3 4 4 4 4 3 3 2 2 2 2 2 2 3 3 3 3 4 4 4 4 4 4 2 1 0 0 0 0 0 0 0 0 0
4 4 4 4 4 4 4 5 5 4 3 2 2 2 2 2 2 2 3 3 3 4 4 5 5 5 5 3 1 0 0 0 0 0 0 0 0 0
5 4 3 3 3 3 4 6 6 5 4 4 3 2 2 2 2 3 4 4 4 4 4 5 6 6 6 5 2 1 1 0 0 0 0 0 0 0
5 4 3 2 1 2 3 5 6 6 6 6 5 4 4 3 3 4 5 5 5 4 4 4 4 5 6 6 4 2 2 1 1 0 0 0 0 0
4 3 2 1 0 1 1 3 4 6 7 8 7 7 6 5 5 5 6 7 6 5 4 3 4 4 4 5 5 4 3 3 2 1 1 0 0 0
3 2 1 1 0 0 0 1 2 4 6 8 8 8 7 6 6 6 6 7 8 7 6 6 5 4 4 5 5 5 5 5 4 3 2 1 0 0
2 2 1 1 1 1 1 1 2 3 5 6 7 7 7 6 7 6 6 6 7 8 8 9 9 7 6 5 5 6 6 6 6 5 4 2 1 1
1 1 1 1 1 2 2 3 3 4 4 5 5 5 5 5 6 7 6 6 6 7 8 11 12 11 9 6 5 5 6 6 6 6 6 4 2 2
1 1 2 2 2 2 3 3 4 5 6 6 6 6 6 5 5 6 7 6 6 6 8 11 13 13 10 7 5 5 5 6 6 7 6 5 3 3
1 1 1 2 2 3 3 3 3 5 8 9 10 9 8 8 7 7 7 7 6 5 7 10 13 12 9 7 5 5 5 5 6 6 6 5 3 2
1 1 1 2 2 3 3 3 3 5 8 11 13 14 13 12 11 10 9 7 6 5 6 9 12 12 10 7 6 5 4 4 5 6 6 5 3 1
1 1 2 2 2 3 3 3 3 4 6 8 12 16 17 17 15 13 12 9 7 6 5 7 9 11 10 8 7 5 3 2 3 4 5 4 2 1
2 2 2 2 2 3 3 3 3 3 4 5 8 13 18 21 20 17 15 13 10 7 6 5 7 9 9 8 7 6 3 2 1 2 2 2 2 1
2 2 2 2 2 2 3 3 3 3 3 3 4 8 16 23 24 19 16 15 12 9 6 4 5 8 8 7 7 6 4 2 1 0 0 1 1 1